Weather History for Juneau, WI

Change the Weather History Date:

Saturday, December 28, 2013

  Actual Average Record
Temperature  
Mean Temperature 30 °F -  
Max Temperature 39 °F 26 °F 51 °F (1982)
Min Temperature 22 °F 14 °F -10 °F (1970)
Degree Days  
Heating Degree Days 34    
Moisture  
Dew Point 26 °F    
Average Humidity 78    
Maximum Humidity 96    
Minimum Humidity 64    
Precipitation  
Precipitation 0.00 in - - ()
Sea Level Pressure  
Sea Level Pressure 29.90 in    
Wind  
Wind Speed 8 mph (SSW)    
Max Wind Speed 20 mph    
Max Gust Speed 26 mph    
Visibility 10 miles    
Events      
Averages and records for this station are not official NWS values.
T = Trace of Precipitation, MM = Missing Value Source: NWS Daily Summary

Daily Weather History Graph

Daily Weather History Graph

Search for Another Location

Airport:

Trip Planner

Search our weather history database for the weather conditions in past years. The results will help you decide how hot, cold, wet, or windy it might be!

Date:

Astronomy

Dec. 28, 2013 Rise Set
Actual Time 7:27 AM CST 4:26 PM CST
Civil Twilight 6:54 AM CST 4:58 PM CST
Nautical Twilight 6:18 AM CST 5:34 PM CST
Astronomical Twilight 5:43 AM CST 6:09 PM CST
Moon 2:59 AM CST (12/28) 1:20 PM CST (12/28)
Length of Visible Light 10h 04m
Length of Day
8h 59m
Waning Crescent, 19% of the Moon is Illuminated
Dec 28
Waning Crescent
Jan 1
New
Jan 7
First Quarter
Jan 15
Full
Jan 23
Last Quarter

Hourly Weather History & Observations

Time (CST) Temp. Windchill Dew Point Humidity Pressure Visibility Wind Dir Wind Speed Gust Speed Precip Events Conditions
12:15 AM 29.8 °F 24.9 °F 25.0 °F 82% 30.02 in 10.0 mi WSW 4.6 mph - N/A   Clear
12:35 AM 29.3 °F 22.3 °F 23.9 °F 80% 30.01 in 10.0 mi SW 6.9 mph - N/A   Clear
12:55 AM 28.4 °F 22.2 °F 23.7 °F 83% 30.02 in 10.0 mi SW 5.8 mph - N/A   Clear
1:15 AM 30.0 °F 25.2 °F 25.2 °F 82% 30.02 in 10.0 mi SW 4.6 mph - N/A   Clear
1:35 AM 28.8 °F 22.6 °F 25.0 °F 86% 30.02 in 10.0 mi SW 5.8 mph - N/A   Clear
1:55 AM 26.2 °F 20.7 °F 23.2 °F 88% 30.01 in 10.0 mi SW 4.6 mph - N/A   Clear
2:15 AM 26.6 °F 19.1 °F 24.4 °F 92% 30.01 in 10.0 mi SSW 6.9 mph - N/A   Clear
2:35 AM 26.1 °F 19.4 °F 22.8 °F 88% 30.02 in 10.0 mi SSW 5.8 mph - N/A   Clear
2:55 AM 27.0 °F 23.0 °F 25.0 °F 92% 30.02 in 10.0 mi SW 3.5 mph - N/A   Clear
3:15 AM 26.4 °F 20.9 °F 24.1 °F 91% 30.02 in 10.0 mi SSW 4.6 mph - N/A   Clear
3:35 AM 25.7 °F 19.0 °F 24.3 °F 94% 30.02 in 7.0 mi SSW 5.8 mph - N/A   Clear
3:55 AM 26.4 °F 22.4 °F 24.6 °F 93% 30.02 in 10.0 mi SSW 3.5 mph - N/A   Clear
4:15 AM 25.5 °F - 23.9 °F 94% 30.02 in 7.0 mi Calm Calm - N/A   Clear
4:35 AM 25.5 °F 19.9 °F 24.1 °F 94% 30.02 in 7.0 mi South 4.6 mph - N/A   Clear
4:55 AM 26.4 °F - 25.0 °F 94% 30.02 in 10.0 mi Calm Calm - N/A   Clear
5:15 AM 25.7 °F 20.1 °F 24.4 °F 95% 30.01 in 7.0 mi South 4.6 mph - N/A   Clear
5:35 AM 25.2 °F 18.3 °F 23.9 °F 95% 30.01 in 10.0 mi South 5.8 mph - N/A   Clear
5:55 AM 24.4 °F 17.5 °F 23.2 °F 95% 30.00 in 7.0 mi South 5.8 mph - N/A   Clear
6:15 AM 22.8 °F 15.5 °F 21.4 °F 94% 29.99 in 5.0 mi South 5.8 mph - N/A   Clear
6:35 AM 23.2 °F 17.2 °F 22.1 °F 96% 29.98 in 5.0 mi South 4.6 mph - N/A   Clear
6:55 AM 24.6 °F 17.7 °F 23.5 °F 96% 29.99 in 10.0 mi South 5.8 mph - N/A   Clear
7:15 AM 25.3 °F 18.5 °F 24.1 °F 95% 29.98 in 10.0 mi South 5.8 mph - N/A   Clear
7:35 AM 25.2 °F 16.5 °F 23.7 °F 94% 30.00 in 10.0 mi South 8.1 mph - N/A   Clear
7:55 AM 26.6 °F 15.7 °F 24.6 °F 92% 30.00 in 10.0 mi South 12.7 mph - N/A   Clear
8:15 AM 27.3 °F 17.7 °F 24.1 °F 88% 29.99 in 10.0 mi SSW 10.4 mph - N/A   Clear
8:35 AM 28.4 °F 21.2 °F 24.3 °F 84% 29.98 in 10.0 mi South 6.9 mph - N/A   Clear
8:55 AM 28.9 °F 21.9 °F 23.9 °F 81% 29.97 in 10.0 mi South 6.9 mph - N/A   Clear
9:15 AM 30.0 °F 22.4 °F 24.1 °F 79% 29.97 in 10.0 mi South 8.1 mph - N/A   Clear
9:35 AM 30.9 °F 22.8 °F 24.6 °F 77% 29.97 in 10.0 mi South 9.2 mph - N/A   Clear
9:55 AM 31.5 °F 24.2 °F 24.8 °F 76% 29.97 in 10.0 mi South 8.1 mph - N/A   Clear
10:15 AM 32.0 °F 24.2 °F 25.0 °F 75% 29.95 in 10.0 mi South 9.2 mph - N/A   Clear
10:35 AM 32.9 °F 24.7 °F 25.5 °F 74% 29.95 in 10.0 mi South 10.4 mph - N/A   Clear
10:55 AM 33.6 °F 25.6 °F 26.1 °F 74% 29.93 in 10.0 mi South 10.4 mph - N/A   Clear
11:15 AM 34.3 °F 25.5 °F 26.6 °F 73% 29.92 in 10.0 mi South 12.7 mph 17.3 mph N/A   Clear
11:35 AM 35.6 °F 28.0 °F 27.3 °F 72% 29.91 in 10.0 mi South 10.4 mph - N/A   Clear
11:55 AM 36.1 °F 27.7 °F 28.0 °F 72% 29.90 in 10.0 mi South 12.7 mph - N/A   Clear
12:15 PM 36.9 °F 28.7 °F 28.4 °F 71% 29.88 in 10.0 mi South 12.7 mph - N/A   Clear
12:35 PM 37.6 °F 30.0 °F 28.4 °F 69% 29.87 in 10.0 mi South 11.5 mph - N/A   Clear
12:55 PM 37.9 °F 29.6 °F 28.4 °F 69% 29.86 in 10.0 mi SSW 13.8 mph - N/A   Clear
1:15 PM 38.7 °F 30.5 °F 28.2 °F 66% 29.84 in 10.0 mi South 13.8 mph - N/A   Clear
1:35 PM 39.0 °F 31.0 °F 28.0 °F 65% 29.84 in 10.0 mi South 13.8 mph - N/A   Clear
1:55 PM 39.2 °F 30.8 °F 28.0 °F 64% 29.84 in 10.0 mi South 15.0 mph 20.7 mph N/A   Clear
2:15 PM 39.4 °F 30.7 °F 28.0 °F 64% 29.84 in 10.0 mi South 16.1 mph - N/A   Clear
2:35 PM 39.2 °F 30.8 °F 28.2 °F 65% 29.84 in 10.0 mi South 15.0 mph - N/A   Clear
2:55 PM 39.2 °F 31.2 °F 28.4 °F 65% 29.83 in 10.0 mi South 13.8 mph - N/A   Clear
3:15 PM 39.4 °F 31.4 °F 28.2 °F 64% 29.84 in 10.0 mi South 13.8 mph - N/A   Clear
3:35 PM 39.4 °F 31.1 °F 28.2 °F 64% 29.84 in 10.0 mi South 15.0 mph - N/A   Clear
3:55 PM 38.8 °F 31.2 °F 28.2 °F 66% 29.83 in 10.0 mi South 12.7 mph - N/A   Clear
4:15 PM 38.8 °F 30.0 °F 28.2 °F 66% 29.83 in 10.0 mi South 16.1 mph - N/A   Clear
4:35 PM 38.3 °F 29.7 °F 28.4 °F 68% 29.82 in 10.0 mi South 15.0 mph 21.9 mph N/A   Clear
4:55 PM 37.9 °F 30.0 °F 28.4 °F 69% 29.82 in 10.0 mi South 12.7 mph - N/A   Clear
5:15 PM 37.8 °F 29.8 °F 28.4 °F 69% 29.81 in 10.0 mi South 12.7 mph - N/A   Clear
5:35 PM 38.3 °F 29.7 °F 28.4 °F 68% 29.81 in 10.0 mi South 15.0 mph - N/A   Clear
5:55 PM 38.3 °F 29.3 °F 28.4 °F 68% 29.80 in 10.0 mi South 16.1 mph 23.0 mph N/A   Clear
6:15 PM 38.3 °F 29.3 °F 28.2 °F 67% 29.79 in 10.0 mi South 16.1 mph - N/A   Clear
6:35 PM 38.3 °F 29.3 °F 28.4 °F 68% 29.79 in 10.0 mi South 16.1 mph - N/A   Clear
6:55 PM 37.6 °F 28.8 °F 28.4 °F 69% 29.78 in 10.0 mi South 15.0 mph - N/A   Clear
7:15 PM 37.9 °F 28.2 °F 28.4 °F 69% 29.78 in 10.0 mi South 18.4 mph - N/A   Clear
7:35 PM 38.3 °F 29.3 °F 28.4 °F 68% 29.78 in 10.0 mi South 16.1 mph 26.5 mph N/A   Clear
7:55 PM 37.8 °F 27.7 °F 28.4 °F 69% 29.78 in 10.0 mi South 19.6 mph - N/A   Clear
8:15 PM 37.4 °F 28.5 °F 28.4 °F 70% 29.78 in 10.0 mi SSW 15.0 mph - N/A   Clear
8:35 PM 36.7 °F 28.4 °F 28.4 °F 72% 29.78 in 10.0 mi SSW 12.7 mph - N/A   Clear
8:55 PM 35.8 °F 28.3 °F 28.2 °F 74% 29.78 in 10.0 mi SSW 10.4 mph - N/A   Clear
9:15 PM 35.2 °F 26.6 °F 28.0 °F 75% 29.77 in 10.0 mi SSW 12.7 mph - N/A   Clear
9:35 PM 35.2 °F 26.6 °F 27.9 °F 74% 29.77 in 10.0 mi SSW 12.7 mph - N/A   Clear
9:55 PM 35.8 °F 27.3 °F 27.9 °F 73% 29.77 in 10.0 mi SSW 12.7 mph - N/A   Clear
10:15 PM 35.2 °F 26.2 °F 27.9 °F 74% 29.76 in 10.0 mi South 13.8 mph - N/A   Clear
10:35 PM 35.1 °F 27.4 °F 27.1 °F 73% 29.75 in 10.0 mi SSW 10.4 mph - N/A   Clear
10:55 PM 35.1 °F 26.9 °F 27.3 °F 73% 29.75 in 10.0 mi SSW 11.5 mph - N/A   Clear
11:15 PM 34.2 °F 25.7 °F 26.6 °F 74% 29.75 in 10.0 mi SSW 11.5 mph - N/A   Clear
11:35 PM 34.7 °F 28.1 °F 26.6 °F 72% 29.75 in 10.0 mi SSW 8.1 mph - N/A   Clear
11:55 PM 33.6 °F 25.6 °F 25.9 °F 73% 29.74 in 10.0 mi SSW 10.4 mph - N/A   Clear